Starlink 34024

operational
NORAD ID: 64031 Int'l Des: 2025-102 Owner: SPXS Country: US Constellation: starlink
LEOCIRCULAR

关于 Starlink 34024

正在加载描述...

实时位置

正在加载3D地球...

即将过境

高度历史

Altitude vs Time

uPlot chart will show altitude changes over time

两行轨道根数

1 64031U 25102K 26095.47845135 .00006397 00000-0 54326-3 0 9991
2 64031 70.0021 46.9592 0002894 271.2952 88.7875 14.98343673 49905
Epoch: Apr 5, 2026 • Age: 10 hours

当前状态

高度 579.0 km
速度 7.57 km/s
星下点 42.20°N, 88.58°W
发射日期 May 16, 2025
运行时间 0.8 years
类型 internet

技术详情

分类 Payload
质量 575.00 kg
干质量 530.00 kg
总质量 575.00 kg
长度 0.30 m
直径 4.10 m
跨度 29.00 m
形状 Box + pan
制造商 SPXS
平台类型 Starlink V2MO
阶段状态 In Orbit
所有者/国家 SPXS/US

大型星座

Loading constellations...